TimeCDT,TemperatureF,Dew PointF,Humidity,Sea Level PressureIn,VisibilityMPH,Wind Direction,Wind SpeedMPH,Gust SpeedMPH,PrecipitationIn,Events,Conditions,WindDirDegrees,DateUTC
12:15 AM,71.2,71.1,99,29.88,4.0,South,6.9,-,N/A,,Clear,180,2013-09-20 05:15:00
12:35 AM,71.2,71.2,100,29.88,4.0,South,6.9,-,N/A,,Scattered Clouds,180,2013-09-20 05:35:00
12:55 AM,71.2,71.2,100,29.87,4.0,South,8.1,-,N/A,,Scattered Clouds,180,2013-09-20 05:55:00
1:15 AM,71.6,71.2,99,29.86,5.0,South,8.1,-,N/A,,Clear,180,2013-09-20 06:15:00
1:35 AM,71.6,70.9,98,29.86,5.0,South,6.9,-,N/A,,Clear,190,2013-09-20 06:35:00
1:55 AM,71.6,70.9,98,29.86,5.0,SSW,4.6,-,N/A,,Clear,200,2013-09-20 06:55:00
2:15 AM,71.4,71.1,99,29.85,5.0,South,5.8,-,N/A,,Scattered Clouds,190,2013-09-20 07:15:00
2:35 AM,71.6,71.1,98,29.85,5.0,SSW,8.1,-,N/A,Thunderstorm,Mostly Cloudy,210,2013-09-20 07:35:00
2:55 AM,72.0,71.1,97,29.85,7.0,SW,12.7,16.1,N/A,,Scattered Clouds,220,2013-09-20 07:55:00
3:15 AM,72.5,70.3,93,29.84,7.0,WSW,8.1,-,N/A,Rain,Light Rain,240,2013-09-20 08:15:00
3:35 AM,71.6,70.0,95,29.83,7.0,SSW,5.8,-,N/A,,Clear,210,2013-09-20 08:35:00
3:55 AM,70.7,69.8,97,29.82,7.0,SSW,5.8,-,N/A,,Clear,200,2013-09-20 08:55:00
4:15 AM,69.8,69.8,100,29.82,5.0,South,5.8,-,N/A,,Clear,190,2013-09-20 09:15:00
4:35 AM,68.9,68.4,98,29.81,7.0,SSW,4.6,-,N/A,,Clear,200,2013-09-20 09:35:00
4:55 AM,68.5,67.6,97,29.82,10.0,SSW,5.8,-,N/A,,Clear,210,2013-09-20 09:55:00
5:15 AM,68.2,67.6,98,29.82,10.0,SSW,6.9,-,N/A,,Clear,210,2013-09-20 10:15:00
5:35 AM,68.0,67.5,98,29.82,10.0,SSW,5.8,-,N/A,,Clear,210,2013-09-20 10:35:00
5:55 AM,67.5,67.3,99,29.85,7.0,West,5.8,-,N/A,,Clear,260,2013-09-20 10:55:00
6:15 AM,67.1,66.6,98,29.86,10.0,WSW,5.8,-,N/A,,Clear,250,2013-09-20 11:15:00
6:35 AM,67.1,66.7,99,29.87,10.0,WSW,6.9,-,N/A,,Mostly Cloudy,240,2013-09-20 11:35:00
6:55 AM,67.3,66.6,98,29.87,10.0,WSW,10.4,-,N/A,,Overcast,250,2013-09-20 11:55:00
7:15 AM,67.3,66.4,97,29.87,10.0,WSW,6.9,-,N/A,,Overcast,240,2013-09-20 12:15:00
7:35 AM,67.3,66.6,98,29.87,10.0,WSW,11.5,-,N/A,,Overcast,250,2013-09-20 12:35:00
7:55 AM,67.3,66.6,98,29.88,10.0,WSW,9.2,-,N/A,,Overcast,240,2013-09-20 12:55:00
8:15 AM,67.5,66.4,96,29.87,10.0,WSW,8.1,-,N/A,,Overcast,250,2013-09-20 13:15:00
8:35 AM,67.5,66.2,96,29.87,10.0,WSW,6.9,-,N/A,,Mostly Cloudy,240,2013-09-20 13:35:00
8:55 AM,68.0,66.4,95,29.87,10.0,WSW,5.8,-,N/A,,Mostly Cloudy,250,2013-09-20 13:55:00
9:15 AM,68.0,66.4,95,29.86,10.0,WSW,5.8,-,N/A,Rain,Light Rain,250,2013-09-20 14:15:00
9:35 AM,68.0,66.7,96,29.86,10.0,WSW,5.8,-,N/A,,Light Drizzle,250,2013-09-20 14:35:00
9:55 AM,68.0,67.1,97,29.87,10.0,WSW,6.9,-,N/A,Rain,Rain,240,2013-09-20 14:55:00
10:15 AM,68.0,67.1,97,29.87,10.0,WSW,5.8,-,N/A,,Overcast,240,2013-09-20 15:15:00
10:35 AM,68.5,66.9,95,29.87,10.0,WSW,6.9,-,N/A,,Overcast,250,2013-09-20 15:35:00
10:55 AM,68.5,66.4,93,29.88,10.0,WSW,8.1,-,N/A,,Overcast,250,2013-09-20 15:55:00
11:15 AM,68.5,66.2,92,29.87,10.0,WSW,9.2,-,N/A,,Overcast,250,2013-09-20 16:15:00
11:35 AM,68.5,66.4,93,29.86,7.0,WSW,6.9,-,N/A,,Overcast,250,2013-09-20 16:35:00
11:55 AM,68.9,66.2,91,29.86,10.0,WSW,6.9,-,N/A,,Overcast,240,2013-09-20 16:55:00
12:15 PM,70.0,66.6,89,29.85,10.0,WSW,9.2,-,N/A,,Overcast,250,2013-09-20 17:15:00
12:35 PM,70.2,66.2,87,29.85,10.0,WSW,6.9,-,N/A,,Overcast,240,2013-09-20 17:35:00
12:55 PM,70.9,66.0,85,29.84,10.0,WSW,6.9,-,N/A,,Overcast,250,2013-09-20 17:55:00
1:15 PM,70.7,66.4,86,29.83,10.0,West,5.8,-,N/A,,Overcast,260,2013-09-20 18:15:00
1:35 PM,71.6,66.2,83,29.82,10.0,West,6.9,-,N/A,,Overcast,280,2013-09-20 18:35:00
1:55 PM,72.5,66.4,81,29.82,10.0,WSW,8.1,-,N/A,,Overcast,250,2013-09-20 18:55:00
2:15 PM,71.2,66.0,84,29.81,10.0,NW,6.9,-,N/A,,Overcast,320,2013-09-20 19:15:00
2:35 PM,72.0,66.7,84,29.81,10.0,NW,8.1,-,N/A,,Overcast,310,2013-09-20 19:35:00
2:55 PM,72.5,66.9,83,29.80,10.0,WSW,6.9,-,N/A,,Mostly Cloudy,250,2013-09-20 19:55:00
3:15 PM,72.9,66.9,82,29.80,10.0,SW,6.9,-,N/A,,Mostly Cloudy,230,2013-09-20 20:15:00
3:35 PM,73.0,63.9,73,29.79,10.0,WSW,11.5,-,N/A,,Mostly Cloudy,250,2013-09-20 20:35:00
3:55 PM,72.7,63.5,73,29.79,10.0,WSW,4.6,-,N/A,,Scattered Clouds,250,2013-09-20 20:55:00
4:35 PM,72.0,63.7,75,29.80,10.0,West,8.1,-,N/A,,Scattered Clouds,260,2013-09-20 21:35:00
4:55 PM,71.6,61.0,69,29.79,10.0,West,5.8,-,N/A,,Mostly Cloudy,260,2013-09-20 21:55:00
5:15 PM,70.9,61.5,72,29.79,10.0,West,3.5,-,N/A,,Scattered Clouds,260,2013-09-20 22:15:00
5:35 PM,70.3,60.8,72,29.79,10.0,West,5.8,-,N/A,,Scattered Clouds,260,2013-09-20 22:35:00
5:55 PM,70.0,59.9,70,29.79,10.0,West,6.9,-,N/A,,Scattered Clouds,260,2013-09-20 22:55:00
6:15 PM,69.1,59.9,72,29.79,10.0,West,5.8,-,N/A,,Scattered Clouds,260,2013-09-20 23:15:00
6:35 PM,68.4,59.9,74,29.79,10.0,West,5.8,-,N/A,,Clear,270,2013-09-20 23:35:00
6:55 PM,68.0,59.5,74,29.79,10.0,West,5.8,-,N/A,,Clear,270,2013-09-20 23:55:00
7:15 PM,67.5,58.1,72,29.80,10.0,West,6.9,-,N/A,,Clear,280,2013-09-21 00:15:00
7:35 PM,66.7,57.0,71,29.81,10.0,WNW,4.6,-,N/A,,Clear,290,2013-09-21 00:35:00
7:55 PM,66.0,56.7,72,29.81,10.0,WNW,5.8,-,N/A,,Clear,300,2013-09-21 00:55:00
8:15 PM,65.3,56.5,73,29.81,10.0,WNW,4.6,-,N/A,,Clear,300,2013-09-21 01:15:00
8:35 PM,64.8,55.4,72,29.82,10.0,WNW,4.6,-,N/A,,Clear,290,2013-09-21 01:35:00
8:55 PM,64.4,54.5,70,29.82,10.0,West,4.6,-,N/A,,Clear,280,2013-09-21 01:55:00
9:15 PM,63.7,54.5,72,29.82,10.0,NW,5.8,-,N/A,,Scattered Clouds,310,2013-09-21 02:15:00
9:35 PM,63.0,54.5,74,29.82,10.0,NW,6.9,-,N/A,,Scattered Clouds,310,2013-09-21 02:35:00
9:55 PM,62.6,53.1,71,29.83,10.0,NW,4.6,-,N/A,,Clear,310,2013-09-21 02:55:00
10:15 PM,61.7,52.7,72,29.83,10.0,NW,4.6,-,N/A,,Clear,310,2013-09-21 03:15:00
10:35 PM,61.2,52.0,72,29.83,10.0,WNW,4.6,-,N/A,,Clear,300,2013-09-21 03:35:00
10:55 PM,60.6,51.8,73,29.83,10.0,WNW,4.6,-,N/A,,Clear,300,2013-09-21 03:55:00
11:15 PM,59.9,51.8,75,29.82,10.0,Calm,Calm,-,N/A,,Clear,0,2013-09-21 04:15:00
11:35 PM,59.5,51.4,75,29.82,10.0,WNW,3.5,-,N/A,,Clear,290,2013-09-21 04:35:00
11:55 PM,59.5,51.4,75,29.82,10.0,WNW,3.5,-,N/A,,Clear,300,2013-09-21 04:55:00